Weather History for KMWM - November, 2014

Change the Weather History Date:

Thursday, November 20, 2014

  Actual Average Record
Temperature  
Mean Temperature 10 °F -  
Max Temperature 19 °F 38 °F 65 °F (1962)
Min Temperature 0 °F 21 °F 0 °F (2014)
Degree Days  
Heating Degree Days 56    
Moisture  
Dew Point 4 °F    
Average Humidity 80    
Maximum Humidity 92    
Minimum Humidity 63    
Precipitation  
Precipitation 0.00 in - - ()
Sea Level Pressure  
Sea Level Pressure 30.13 in    
Wind  
Wind Speed 8 mph (West)    
Max Wind Speed 16 mph    
Max Gust Speed 17 mph    
Visibility 10 miles    
Events      
Averages and records for this station are not official NWS values.
T = Trace of Precipitation, MM = Missing Value Source: NWS Daily Summary

Daily Weather History Graph

Daily Weather History Graph

Search for Another Location

Airport or City:

Trip Planner

Search our weather history database for the weather conditions in past years. The results will help you decide how hot, cold, wet, or windy it might be!

Date:

Astronomy

Nov. 20, 2014 Rise Set
Actual Time 7:21 AM CST 4:50 PM CST
Civil Twilight 6:50 AM CST 5:21 PM CST
Nautical Twilight 6:14 AM CST 5:56 PM CST
Astronomical Twilight 5:40 AM CST 6:31 PM CST
Moon 5:13 AM CST (11/20) 3:58 PM CST (11/20)
Length of Visible Light 10h 31m
Length of Day
9h 28m
Waning Crescent, 4% of the Moon is Illuminated
Nov 20
Waning Crescent
Nov 22
New
Nov 29
First Quarter
Dec 6
Full
Dec 14
Last Quarter

Hourly Weather History & Observations

Time (CST) Temp. Windchill Dew Point Humidity Pressure Visibility Wind Dir Wind Speed Gust Speed Precip Events Conditions
12:13 AM 12.2 °F -1.8 °F 8.6 °F 85% 30.04 in 10.0 mi West 11.5 mph - N/A   Clear
12:33 AM 12.2 °F -3.1 °F 8.6 °F 85% 30.03 in 10.0 mi West 13.8 mph - N/A   Clear
12:54 AM 10.4 °F -4.1 °F 6.8 °F 85% 30.03 in 10.0 mi West 11.5 mph - N/A   Clear
1:13 AM 10.4 °F -4.1 °F 6.8 °F 85% 30.03 in 10.0 mi West 11.5 mph - N/A   Clear
1:33 AM 10.4 °F -3.3 °F 6.8 °F 85% 30.03 in 10.0 mi West 10.4 mph - N/A   Clear
1:54 AM 10.4 °F -3.3 °F 6.8 °F 85% 30.04 in 10.0 mi West 10.4 mph - N/A   Clear
2:13 AM 10.4 °F -3.3 °F 6.8 °F 85% 30.04 in 10.0 mi West 10.4 mph - N/A   Clear
2:33 AM 8.6 °F -5.5 °F 3.2 °F 79% 30.05 in 10.0 mi West 10.4 mph - N/A   Clear
2:54 AM 8.6 °F -3.7 °F 3.2 °F 79% 30.05 in 10.0 mi West 8.1 mph - N/A   Clear
3:13 AM 6.8 °F -6.9 °F 3.2 °F 85% 30.05 in 10.0 mi West 9.2 mph - N/A   Clear
3:33 AM 6.8 °F -6.9 °F 3.2 °F 85% 30.05 in 10.0 mi West 9.2 mph - N/A   Clear
3:53 AM 3.2 °F -12.2 °F 1.4 °F 92% 30.05 in 10.0 mi WNW 10.4 mph - N/A   Clear
4:13 AM 5.0 °F -8.1 °F 1.4 °F 85% 30.05 in 10.0 mi West 8.1 mph - N/A   Clear
4:34 AM 5.0 °F -8.1 °F 1.4 °F 85% 30.06 in 10.0 mi West 8.1 mph - N/A   Clear
4:54 AM 3.2 °F -11.3 °F -0.4 °F 85% 30.06 in 10.0 mi West 9.2 mph - N/A   Unknown
5:13 AM 3.2 °F -11.3 °F -0.4 °F 85% 30.06 in 10.0 mi West 9.2 mph - N/A   Clear
5:34 AM 3.2 °F -9.1 °F -0.4 °F 85% 30.06 in 10.0 mi West 6.9 mph - N/A   Clear
5:53 AM 3.2 °F -6.2 °F -0.4 °F 85% 30.07 in 10.0 mi West 4.6 mph - N/A   Unknown
6:13 AM 1.4 °F -11.3 °F -0.4 °F 92% 30.08 in 10.0 mi West 6.9 mph - N/A   Unknown
6:34 AM 1.4 °F -11.3 °F -0.4 °F 92% 30.08 in 10.0 mi West 6.9 mph - N/A   Unknown
6:54 AM 1.4 °F -11.3 °F -2.2 °F 85% 30.09 in 10.0 mi West 6.9 mph - N/A   Clear
7:13 AM 1.4 °F -11.3 °F -2.2 °F 85% 30.10 in 10.0 mi West 6.9 mph - N/A   Clear
7:34 AM 1.4 °F -12.5 °F -2.2 °F 85% 30.10 in 10.0 mi West 8.1 mph - N/A   Clear
7:54 AM 1.4 °F -11.3 °F -2.2 °F 85% 30.11 in 10.0 mi WSW 6.9 mph - N/A   Unknown
8:13 AM 3.2 °F -9.1 °F -0.4 °F 85% 30.11 in 10.0 mi WSW 6.9 mph - N/A   Clear
8:34 AM 5.0 °F -6.9 °F -0.4 °F 78% 30.12 in 10.0 mi WSW 6.9 mph - N/A   Clear
8:53 AM 6.8 °F -4.8 °F 1.4 °F 79% 30.12 in 10.0 mi West 6.9 mph - N/A   Clear
9:13 AM 8.6 °F -4.7 °F 3.2 °F 79% 30.13 in 10.0 mi West 9.2 mph - N/A   Clear
9:34 AM 10.4 °F -0.4 °F 3.2 °F 73% 30.14 in 10.0 mi West 6.9 mph - N/A   Clear
9:53 AM 10.4 °F -2.4 °F 5.0 °F 79% 30.14 in 10.0 mi WNW 9.2 mph - N/A   Clear
10:13 AM 12.2 °F -1.0 °F 6.8 °F 79% 30.15 in 10.0 mi West 10.4 mph - N/A   Clear
10:33 AM 12.2 °F -0.2 °F 6.8 °F 79% 30.15 in 10.0 mi WNW 9.2 mph - N/A   Clear
10:53 AM 14.0 °F 2.0 °F 8.6 °F 79% 30.15 in 10.0 mi WNW 9.2 mph - N/A   Clear
11:14 AM 15.8 °F 5.1 °F 8.6 °F 73% 30.16 in 10.0 mi WNW 8.1 mph - N/A   Clear
11:33 AM 15.8 °F 4.2 °F 8.6 °F 73% 30.16 in 10.0 mi West 9.2 mph - N/A   Clear
11:53 AM 17.6 °F 5.7 °F 8.6 °F 68% 30.16 in 10.0 mi WNW 10.4 mph - N/A   Clear
12:14 PM 17.6 °F 5.0 °F 8.6 °F 68% 30.15 in 10.0 mi WNW 11.5 mph - N/A   Clear
12:33 PM 17.6 °F 4.3 °F 8.6 °F 68% 30.16 in 10.0 mi WNW 12.7 mph - N/A   Clear
12:53 PM 17.6 °F 5.0 °F 10.4 °F 73% 30.16 in 10.0 mi WNW 11.5 mph - N/A   Clear
1:14 PM 17.6 °F 5.7 °F 10.4 °F 73% 30.16 in 10.0 mi WNW 10.4 mph - N/A   Clear
1:33 PM 19.4 °F 6.0 °F 10.4 °F 68% 30.16 in 10.0 mi WNW 13.8 mph 17.3 mph N/A   Clear
1:53 PM 19.4 °F 5.0 °F 8.6 °F 63% 30.16 in 10.0 mi WNW 16.1 mph - N/A   Clear
2:14 PM 19.4 °F 7.2 °F 8.6 °F 63% 30.16 in 10.0 mi NW 11.5 mph - N/A   Clear
2:33 PM 19.4 °F 7.9 °F 8.6 °F 63% 30.16 in 10.0 mi NW 10.4 mph - N/A   Clear
2:53 PM 19.4 °F 7.9 °F 8.6 °F 63% 30.16 in 10.0 mi WNW 10.4 mph - N/A   Clear
3:14 PM 17.6 °F 6.4 °F 8.6 °F 68% 30.16 in 10.0 mi NW 9.2 mph - N/A   Clear
3:33 PM 17.6 °F 7.3 °F 8.6 °F 68% 30.17 in 10.0 mi NW 8.1 mph - N/A   Clear
3:53 PM 17.6 °F 8.2 °F 8.6 °F 68% 30.17 in 10.0 mi WNW 6.9 mph - N/A   Clear
4:14 PM 17.6 °F - 8.6 °F 68% 30.17 in 10.0 mi Calm Calm - N/A   Clear
4:33 PM 15.8 °F - 6.8 °F 68% 30.17 in 10.0 mi Calm Calm - N/A   Clear
4:53 PM 12.2 °F - 6.8 °F 79% 30.17 in 10.0 mi Calm Calm - N/A   Clear
5:13 PM 10.4 °F - 3.2 °F 73% 30.18 in 10.0 mi Calm Calm - N/A   Clear
5:33 PM 8.6 °F - 3.2 °F 79% 30.18 in 10.0 mi Calm Calm - N/A   Unknown
5:54 PM 8.6 °F - 3.2 °F 79% 30.18 in 10.0 mi Calm Calm - N/A   Unknown
6:13 PM 10.4 °F - 5.0 °F 79% 30.19 in 10.0 mi Calm Calm - N/A   Unknown
6:33 PM 8.6 °F - 3.2 °F 79% 30.19 in 10.0 mi Calm Calm - N/A   Unknown
6:54 PM 6.8 °F - 3.2 °F 85% 30.19 in 10.0 mi Calm Calm - N/A   Unknown
7:13 PM 3.2 °F - -0.4 °F 85% 30.18 in 10.0 mi Calm Calm - N/A   Clear
7:34 PM 6.8 °F - 1.4 °F 79% 30.19 in 10.0 mi Calm Calm - N/A   Clear
7:54 PM 5.0 °F - 1.4 °F 85% 30.19 in 10.0 mi Calm Calm - N/A   Unknown
8:13 PM 1.4 °F - -2.2 °F 85% 30.20 in 10.0 mi Calm Calm - N/A   Unknown
8:34 PM 1.4 °F - -2.2 °F 85% 30.19 in 10.0 mi Calm Calm - N/A   Unknown
8:53 PM -0.4 °F - -2.2 °F 92% 30.20 in 10.0 mi Calm Calm - N/A   Clear
9:13 PM 1.4 °F - -2.2 °F 85% 30.20 in 10.0 mi Calm Calm - N/A   Unknown
9:34 PM 1.4 °F - -0.4 °F 92% 30.21 in 10.0 mi Calm Calm - N/A   Unknown
9:53 PM 3.2 °F - -0.4 °F 85% 30.21 in 10.0 mi Calm Calm - N/A   Unknown
10:13 PM 5.0 °F - 1.4 °F 85% 30.21 in 10.0 mi Calm Calm - N/A   Clear
10:33 PM 3.2 °F - 1.4 °F 92% 30.20 in 10.0 mi Calm Calm - N/A   Clear
10:53 PM 3.2 °F - 1.4 °F 92% 30.21 in 10.0 mi Calm Calm - N/A   Clear
11:14 PM 5.0 °F - 1.4 °F 85% 30.21 in 10.0 mi Calm Calm - N/A   Clear
11:33 PM 3.2 °F - 1.4 °F 92% 30.21 in 10.0 mi Calm Calm - N/A   Clear
11:53 PM 3.2 °F - 1.4 °F 92% 30.21 in 10.0 mi Calm Calm - N/A   Unknown